Clarksville, TN

10:47 AM CDT on June 27, 2017 (GMT -0500)
Outlaw

Weather History for KCKV - December, 2014

Change the Weather History Date:

Wednesday, December 17, 2014

  Actual Average Record
Temperature  
Mean Temperature 36 °F 38 °F  
Max Temperature 41 °F 47 °F 74 °F (1984)
Min Temperature 30 °F 29 °F 8 °F (1972)
Degree Days  
Heating Degree Days 29    
Month to date heating degree days 375  
Since 1 July heating degree days 1266  
Cooling Degree Days 0    
Month to date cooling degree days 0  
Year to date cooling degree days  
Moisture  
Dew Point 28 °F    
Average Humidity 72    
Maximum Humidity 85    
Minimum Humidity 59    
Precipitation  
Precipitation 0.00 in 0.16 in 1.65 in (1961)
Month to date precipitation 2.30 3.04  
Year to date precipitation 48.19  
Sea Level Pressure  
Sea Level Pressure 30.29 in    
Wind  
Wind Speed 6 mph (North)    
Max Wind Speed 14 mph    
Max Gust Speed 16 mph    
Visibility 10 miles    
Events      
T = Trace of Precipitation, MM = Missing Value Source: NWS Daily Summary

Daily Weather History Graph

Daily Weather History Graph

Search for Another Location

Airport or City:

Trip Planner

Search our weather history database for the weather conditions in past years. The results will help you decide how hot, cold, wet, or windy it might be!

Date:

Astronomy

Dec. 17, 2014 Rise Set
Actual Time 6:55 AM CST 4:35 PM CST
Civil Twilight 6:27 AM CST 5:04 PM CST
Nautical Twilight 5:54 AM CST 5:37 PM CST
Astronomical Twilight 5:23 AM CST 6:08 PM CST
Moon 2:15 AM CST (12/17) 1:33 PM CST (12/17)
Length of Visible Light 10h 37m
Length of Day
9h 39m
Waning Crescent, 21% of the Moon is Illuminated
Dec 17
Waning Crescent
Dec 21
New
Dec 28
First Quarter
Jan 4
Full
Jan 13
Last Quarter

Hourly Weather History & Observations

Time (CST) Temp. Windchill Dew Point Humidity Pressure Visibility Wind Dir Wind Speed Gust Speed Precip Events Conditions
12:52 AM 37.9 °F 30.9 °F 30.9 °F 76% 30.27 in 10.0 mi NNW 10.4 mph - N/A   Overcast
1:52 AM 37.0 °F 29.8 °F 30.0 °F 76% 30.27 in 10.0 mi NNW 10.4 mph - N/A   Overcast
2:52 AM 37.0 °F 30.4 °F 28.9 °F 73% 30.28 in 10.0 mi NW 9.2 mph - N/A   Overcast
3:52 AM 36.0 °F 29.6 °F 30.0 °F 79% 30.29 in 10.0 mi NW 8.1 mph - N/A   Overcast
4:52 AM 35.1 °F 28.6 °F 30.0 °F 82% 30.29 in 10.0 mi NNW 8.1 mph - N/A   Overcast
5:52 AM 35.1 °F 29.3 °F 30.0 °F 82% 30.29 in 10.0 mi NNW 6.9 mph - N/A   Overcast
6:27 AM 34.0 °F 27.2 °F 28.9 °F 82% 30.30 in 10.0 mi NNW 8.1 mph - N/A   Overcast
6:52 AM 34.0 °F 26.0 °F 28.0 °F 79% 30.32 in 10.0 mi NNW 10.4 mph - N/A   Overcast
7:52 AM 34.0 °F 27.2 °F 28.0 °F 79% 30.33 in 10.0 mi North 8.1 mph - N/A   Overcast
8:21 AM 34.0 °F 28.8 °F 28.0 °F 79% 30.32 in 10.0 mi NNW 5.8 mph - N/A   Overcast
8:52 AM 34.0 °F 28.0 °F 27.0 °F 75% 30.35 in 10.0 mi NNW 6.9 mph - N/A   Overcast
9:52 AM 35.1 °F 30.1 °F 28.0 °F 76% 30.35 in 10.0 mi North 5.8 mph - N/A   Overcast
10:52 AM 36.0 °F 31.1 °F 27.0 °F 70% 30.32 in 10.0 mi ENE 5.8 mph - N/A   Mostly Cloudy
11:02 AM 36.0 °F 32.1 °F 27.0 °F 70% 30.30 in 10.0 mi Variable 4.6 mph - N/A   Scattered Clouds
11:52 AM 37.9 °F - 27.0 °F 65% 30.29 in 10.0 mi Calm Calm - N/A   Partly Cloudy
12:12 PM 39.9 °F 35.8 °F 28.0 °F 63% 30.27 in 10.0 mi North 5.8 mph - N/A   Mostly Cloudy
12:28 PM 39.0 °F 36.8 °F 27.0 °F 62% 30.27 in 10.0 mi Variable 3.5 mph - N/A   Scattered Clouds
12:52 PM 39.9 °F 36.7 °F 28.0 °F 63% 30.27 in 10.0 mi East 4.6 mph - N/A   Clear
1:52 PM 39.9 °F 37.8 °F 27.0 °F 60% 30.27 in 10.0 mi WNW 3.5 mph - N/A   Clear
2:52 PM 41.0 °F 39.0 °F 28.0 °F 60% 30.26 in 10.0 mi NNW 3.5 mph - N/A   Clear
3:52 PM 39.9 °F 35.8 °F 28.0 °F 63% 30.27 in 10.0 mi North 5.8 mph - N/A   Clear
4:52 PM 36.0 °F 32.1 °F 27.0 °F 70% 30.27 in 10.0 mi North 4.6 mph - N/A   Clear
5:52 PM 37.0 °F 34.5 °F 27.0 °F 67% 30.29 in 10.0 mi NW 3.5 mph - N/A   Clear
6:52 PM 35.1 °F 30.1 °F 27.0 °F 72% 30.29 in 10.0 mi NNW 5.8 mph - N/A   Clear
7:52 PM 32.0 °F 27.5 °F 26.1 °F 79% 30.30 in 10.0 mi North 4.6 mph - N/A   Clear
8:52 PM 30.9 °F 25.2 °F 26.1 °F 82% 30.29 in 10.0 mi ENE 5.8 mph - N/A   Clear
9:52 PM 30.9 °F 26.2 °F 26.1 °F 82% 30.29 in 10.0 mi East 4.6 mph - N/A   Clear
10:52 PM 30.0 °F - 26.1 °F 85% 30.30 in 10.0 mi Calm Calm - N/A   Partly Cloudy
11:52 PM 32.0 °F 28.7 °F 27.0 °F 82% 30.29 in 10.0 mi ENE 3.5 mph - N/A   Overcast